Flag for Germany Weather past 2 weeks in Bad Kreuznach, Rhineland-Palatinate, Germany

Now
73 °F

Sunny.


Feels Like: 77 °F
Forecast: 66 / 94 °F
Wind: 10 mph from East

Location: Wiesbaden Airport

Current Time: Jul 1, 2015 at 8:48:29 AM

Latest Report: Jul 1, 2015 at 7:58 AM


Visibility: N/A

Pressure: 30.10 "Hg

Humidity: 54%

Dew point: 55 °F

Location of Bad KreuznachLocation

Historic Weather in Bad Kreuznach — Graph

°F

Bad Kreuznach temperature yesterday

Maximum temperature yesterday: 85 °F (at 5:58 PM)
Minimum temperature yesterday: 64 °F (at 12:58 AM)
Average temperature yesterday: 79 °F

Past Weeks' High & Low Weather Summary

 TemperatureHumidityPressure
High85 °F (Jun 30, 5:58 PM)100% (Jun 18, 8:55 AM)30.28 "Hg (Jun 18, 8:55 AM)
Low47 °F (Jun 17, 5:59 AM)25% (Jun 30, 6:58 PM)29.68 "Hg (Jun 23, 12:04 AM)
Average63 °F68%30.09 "Hg
* Reported Jun 16 6:59 AM — Jul 1 6:58 AM, Bad Kreuznach, Weather by CustomWeather, © 2015

Note: Actual official high and low records may vary slightly from our data, if they occured in-between our weather recording intervals... More about our weather records

Advertising

Bad Kreuznach weather history for previous 24 hours

 ConditionsComfort  
Time TempWeatherWind HumidityBarometerVisibility
6:58 AM
Wed, Jul 1
71 °FSunny.7 mph57%30.10 "HgN/A
5:58 AM70 °FClear.6 mph57%30.10 "HgN/A
4:58 AM70 °FClear.8 mph57%30.09 "HgN/A
3:58 AM70 °FClear.8 mph57%30.09 "HgN/A
2:58 AM71 °FClear.10 mph53%30.09 "HgN/A
1:58 AM71 °FClear.8 mph53%30.09 "HgN/A
12:58 AM73 °FClear.7 mph50%30.09 "HgN/A
11:58 PM
Tue, Jun 30
75 °FClear.7 mph47%30.11 "HgN/A
10:58 PM73 °FClear.5 mph50%30.11 "HgN/A
9:58 PM75 °FSunny.6 mph47%30.10 "HgN/A
8:58 PM81 °FSunny.5 mph37%30.09 "HgN/A
7:58 PM83 °FSunny.5 mph29%30.09 "HgN/A
6:58 PM84 °FSunny.6 mph25%30.08 "HgN/A
5:58 PM85 °FSunny.6 mph27%30.09 "HgN/A
4:58 PM84 °FSunny.7 mph27%30.10 "HgN/A
3:58 PM83 °FSunny.5 mph28%30.12 "HgN/A
2:58 PM83 °FSunny.2 mph33%30.13 "HgN/A
1:58 PM81 °FSunny.8 mph35%30.14 "HgN/A
12:58 PM79 °FSunny.5 mph39%30.15 "HgN/A
11:55 AM79 °FSunny.6 mph42%30.16 "HgN/A
Weather by CustomWeather, © 2015

See weather overviewHow to use our weather pages